FLOCK JE

Last updated on May 24, 2016, 9:36 a.m. UTC

1 41484U 98067JE  16145.10076125  .00025660  00000-0  37371-3 0  9993
2 41484  51.6420 178.1534 0002782  18.2144   6.3553 15.55548997   908

Satellite is not in orbit.